Date String (YYYY-MM-DD hh:mm:ss) UTC,Instrument flags,Ambient pressure (hPa),Sample flow (lpm),Bypass flow (lpm),Sample temperature (°C),Ambient temperature (°C),ASC tube jacket temperature (°C),LED temperature (°C),Box temperature (°C),Sample RH (%),Span deviation,Mass concentration (μg/m³),Mass concentration (μg/m³),Mass concentration (μg/m³)
DateTimeUTC,F1_M11,P_M11,Q1_M11,Q2_M11,T1_M11,T2_M11,T3_M11,T4_M11,T5_M11,U1_M11,ZSPAN_M11,X0_M11,X2_M11,X1_M11
2022-03-17 07:00:00,,0823.1,4.99,0.00,23.8,23.0,00.0,32.8,25.6,19.3,0000.0,0001.96,0001.07,0000.64
2022-03-17 07:01:00,,0823.1,5.02,0.00,23.8,23.0,00.0,32.8,25.6,19.3,0000.0,0001.94,0001.07,0000.64
2022-03-17 07:02:00,,0823.1,4.99,0.00,23.8,23.0,00.0,32.8,25.6,19.3,0000.0,0001.94,0001.07,0000.64
2022-03-17 07:03:00,,0823.1,5.00,0.00,23.8,23.0,00.0,32.8,25.6,19.3,0000.0,0001.98,0001.08,0000.64
2022-03-17 07:04:00,,0823.1,5.00,0.00,23.8,23.0,00.0,32.8,25.6,19.4,0000.0,0002.00,0001.09,0000.64
2022-03-17 07:05:00,,0823.0,4.99,0.00,23.8,23.0,00.0,32.8,25.6,19.4,0000.0,0001.96,0001.09,0000.63
2022-03-17 07:06:00,,0823.0,5.01,0.00,23.8,23.0,00.0,32.8,25.6,19.4,0000.0,0002.07,0001.08,0000.64
2022-03-17 07:07:00,,0823.0,5.00,0.00,23.8,23.0,00.0,32.8,25.6,19.4,0000.0,0002.09,0001.05,0000.63
2022-03-17 07:08:00,,0823.0,5.00,0.00,23.8,23.0,00.0,32.8,25.6,19.4,0000.0,0002.05,0001.03,0000.63
2022-03-17 07:09:00,,0823.0,4.99,0.00,23.8,23.0,00.0,32.8,25.6,19.4,0000.0,0002.07,0001.03,0000.63
2022-03-17 07:10:00,,0823.0,5.00,0.00,23.8,23.0,00.0,32.8,25.6,19.4,0000.0,0001.94,0000.98,0000.62
2022-03-17 07:11:00,,0823.0,5.00,0.00,23.8,23.0,00.0,32.8,25.6,19.4,0000.0,0001.90,0000.97,0000.61
2022-03-17 07:12:00,,0823.0,5.01,0.00,23.8,23.0,00.0,32.8,25.6,19.4,0000.0,0001.82,0000.93,0000.60
2022-03-17 07:13:00,,0823.0,4.98,0.00,23.8,23.0,00.0,32.8,25.6,19.4,0000.0,0001.79,0000.92,0000.59
2022-03-17 07:14:00,,0823.0,5.01,0.00,23.8,23.0,00.0,32.8,25.6,19.4,0000.0,0001.74,0000.90,0000.58
2022-03-17 07:15:00,,0823.0,5.00,0.00,23.8,23.0,00.0,32.8,25.5,19.5,0000.0,0001.75,0000.89,0000.56
2022-03-17 07:16:00,,0823.1,4.99,0.00,23.8,23.0,00.0,32.8,25.5,19.5,0000.0,0001.70,0000.85,0000.54
2022-03-17 07:17:00,,0823.0,5.01,0.00,23.8,23.0,00.0,32.8,25.5,19.5,0000.0,0001.53,0000.82,0000.54
2022-03-17 07:18:00,,0823.0,5.00,0.00,23.8,23.0,00.0,32.8,25.6,19.5,0000.0,0001.35,0000.80,0000.52
2022-03-17 07:19:00,,0823.0,5.00,0.00,23.8,23.0,00.0,32.8,25.6,19.5,0000.0,0001.30,0000.79,0000.51
2022-03-17 07:20:00,,0823.0,5.01,0.00,23.8,23.0,00.0,32.8,25.5,19.5,0000.0,0001.19,0000.74,0000.50
2022-03-17 07:21:00,,0823.0,4.99,0.00,23.8,23.0,00.0,32.8,25.5,19.6,0000.0,0001.11,0000.71,0000.49
2022-03-17 07:22:00,,0823.0,5.00,0.00,23.8,23.0,00.0,32.8,25.5,19.6,0000.0,0001.16,0000.72,0000.49
2022-03-17 07:23:00,,0822.9,4.99,0.00,23.8,23.0,00.0,32.8,25.5,19.6,0000.0,0001.20,0000.73,0000.48
2022-03-17 07:24:00,,0822.9,5.01,0.00,23.8,23.0,00.0,32.8,25.5,19.6,0000.0,0001.16,0000.71,0000.47
2022-03-17 07:25:00,,0823.1,4.99,0.00,23.8,23.0,00.0,32.7,25.5,19.6,0000.0,0001.18,0000.70,0000.48
2022-03-17 07:26:00,,0823.0,5.01,0.00,23.8,23.0,00.0,32.7,25.5,19.6,0000.0,0001.10,0000.67,0000.48
2022-03-17 07:27:00,,0822.9,4.99,0.00,23.8,22.9,00.0,32.7,25.5,19.6,0000.0,0001.06,0000.66,0000.47
2022-03-17 07:28:00,,0822.9,5.00,0.00,23.8,22.9,00.0,32.7,25.5,19.7,0000.0,0001.04,0000.64,0000.46
2022-03-17 07:29:00,,0822.9,5.00,0.00,23.8,22.9,00.0,32.7,25.5,19.7,0000.0,0001.09,0000.68,0000.46
2022-03-17 07:30:00,,0822.9,5.01,0.00,23.8,22.9,00.0,32.7,25.5,19.7,0000.0,0001.10,0000.68,0000.46
2022-03-17 07:31:00,,0822.9,5.00,0.00,23.8,23.0,00.0,32.7,25.5,19.7,0000.0,0001.14,0000.70,0000.46
2022-03-17 07:32:00,,0823.0,5.00,0.00,23.8,23.0,00.0,32.7,25.5,20.5,0000.0,0001.32,0000.75,0000.48
2022-03-17 07:33:00,,0822.9,4.99,0.00,23.8,23.0,00.0,32.7,25.5,22.9,0000.0,0001.36,0000.76,0000.49
2022-03-17 07:34:00,,0822.9,5.00,0.00,23.8,23.0,00.0,32.7,25.6,22.3,0000.0,0001.55,0000.83,0000.50
2022-03-17 07:35:00,,0823.0,5.00,0.00,23.8,23.0,00.0,32.7,25.6,20.7,0000.0,0001.65,0000.88,0000.52
2022-03-17 07:36:00,,0822.9,5.00,0.00,23.8,23.0,00.0,32.7,25.6,20.3,0000.0,0001.64,0000.89,0000.53
2022-03-17 07:37:00,,0822.9,4.99,0.00,23.8,23.0,00.0,32.7,25.6,20.2,0000.0,0001.65,0000.89,0000.53
2022-03-17 07:38:00,,0822.9,4.99,0.00,23.8,23.0,00.0,32.7,25.6,20.1,0000.0,0001.81,0000.95,0000.54
2022-03-17 07:39:00,,0823.0,5.01,0.00,23.8,23.0,00.0,32.7,25.6,20.0,0000.0,0001.87,0000.98,0000.56
2022-03-17 07:40:00,,0822.9,5.01,0.00,23.8,23.0,00.0,32.7,25.6,20.0,0000.0,0001.81,0000.95,0000.57
2022-03-17 07:41:00,,0823.0,5.00,0.00,23.8,23.0,00.0,32.7,25.6,20.0,0000.0,0001.81,0000.96,0000.58
2022-03-17 07:42:00,,0823.0,5.00,0.00,23.8,23.0,00.0,32.7,25.6,20.0,0000.0,0001.92,0001.01,0000.60
2022-03-17 07:43:00,,0823.0,5.00,0.00,23.8,23.0,00.0,32.7,25.6,20.0,0000.0,0001.86,0001.00,0000.60
2022-03-17 07:44:00,,0823.0,5.02,0.00,23.8,23.1,00.0,32.7,25.6,20.0,0000.0,0001.78,0000.98,0000.60
2022-03-17 07:45:00,,0823.0,4.99,0.00,23.8,23.0,00.0,32.7,25.6,20.0,0000.0,0001.62,0000.94,0000.61
2022-03-17 07:46:00,,0823.0,5.01,0.00,23.8,23.0,00.0,32.7,25.6,20.0,0000.0,0001.57,0000.91,0000.62
2022-03-17 07:47:00,,0823.0,5.00,0.00,23.8,23.1,00.0,32.7,25.6,20.0,0000.0,0001.61,0000.93,0000.63
2022-03-17 07:48:00,,0823.0,4.99,0.00,23.8,23.1,00.0,32.8,25.6,20.0,0000.0,0001.74,0001.00,0000.66
2022-03-17 07:49:00,,0823.0,5.00,0.00,23.8,23.1,00.0,32.8,25.6,20.0,0000.0,0001.72,0001.02,0000.67
2022-03-17 07:50:00,,0822.9,5.00,0.00,23.8,23.1,00.0,32.8,25.6,20.0,0000.0,0001.74,0001.04,0000.69
2022-03-17 07:51:00,,0822.9,5.00,0.00,23.8,23.1,00.0,32.8,25.6,20.0,0000.0,0001.84,0001.07,0000.69
2022-03-17 07:52:00,,0823.0,5.00,0.00,23.8,23.1,00.0,32.8,25.6,20.0,0000.0,0001.91,0001.08,0000.69
2022-03-17 07:53:00,,0822.9,5.00,0.00,23.8,23.1,00.0,32.8,25.6,20.0,0000.0,0001.86,0001.05,0000.70
2022-03-17 07:54:00,,0822.9,5.00,0.00,23.8,23.1,00.0,32.8,25.6,20.0,0000.0,0001.94,0001.09,0000.71
2022-03-17 07:55:00,,0822.9,5.01,0.00,23.8,23.1,00.0,32.8,25.6,20.0,0000.0,0002.02,0001.13,0000.72
2022-03-17 07:56:00,,0822.9,5.00,0.00,23.8,23.1,00.0,32.8,25.6,20.0,0000.0,0002.16,0001.19,0000.73
2022-03-17 07:57:00,,0823.0,5.00,0.00,23.8,23.1,00.0,32.8,25.6,20.0,0000.0,0002.12,0001.18,0000.74
2022-03-17 07:58:00,,0823.1,4.99,0.00,23.8,23.1,00.0,32.8,25.6,20.0,0000.0,0002.03,0001.14,0000.72
2022-03-17 07:59:00,,0822.9,5.01,0.00,23.9,23.1,00.0,32.8,25.6,20.0,0000.0,0001.97,0001.11,0000.71
